Fort Worth, TX

4:19 AM CDT on September 25, 2016 (GMT -0500)
Fort Worth Alliance

Weather History for KAFW - December, 2012

Change the Weather History Date:

Thursday, December 27, 2012

  Actual Average Record
Temperature  
Mean Temperature 32 °F -  
Max Temperature 44 °F 54 °F 79 °F (2005)
Min Temperature 19 °F 31 °F 19 °F (2012)
Degree Days  
Heating Degree Days 34    
Moisture  
Dew Point 30 °F    
Average Humidity 82    
Maximum Humidity 96    
Minimum Humidity 67    
Precipitation  
Precipitation 0.00 in - - ()
Sea Level Pressure  
Sea Level Pressure 30.01 in    
Wind  
Wind Speed 4 mph (SE)    
Max Wind Speed 14 mph    
Max Gust Speed -    
Visibility 8 miles    
Events      
Averages and records for this station are not official NWS values.
T = Trace of Precipitation, MM = Missing Value Source: NWS Daily Summary

Daily Weather History Graph

Daily Weather History Graph

Search for Another Location

Airport or City:

Trip Planner

Search our weather history database for the weather conditions in past years. The results will help you decide how hot, cold, wet, or windy it might be!

Date:

Astronomy

Dec. 27, 2012 Rise Set
Actual Time 7:30 AM CST 5:30 PM CST
Civil Twilight 7:03 AM CST 5:57 PM CST
Nautical Twilight 6:32 AM CST 6:28 PM CST
Astronomical Twilight 6:02 AM CST 6:58 PM CST
Moon 5:12 PM CST (12/27) 6:44 AM CST (12/27)
Length of Visible Light 10h 54m
Length of Day
9h 59m
Full, 100% of the Moon is Illuminated
Dec 27
Full
Dec 28
Full
Jan 4
Last Quarter
Jan 11
New
Jan 18
First Quarter

Hourly Weather History & Observations

Time (CST) Temp. Windchill Dew Point Humidity Pressure Visibility Wind Dir Wind Speed Gust Speed Precip Events Conditions
12:53 AM 21.9 °F - 21.0 °F 96% 30.16 in 6.0 mi Calm Calm - N/A   Clear
1:53 AM 21.9 °F - 21.0 °F 96% 30.14 in 6.0 mi Calm Calm - N/A   Clear
2:53 AM 23.0 °F 17.0 °F 19.9 °F 88% 30.12 in 6.0 mi SE 4.6 mph - N/A   Clear
3:53 AM 23.0 °F - 19.9 °F 88% 30.09 in 6.0 mi Calm Calm - N/A   Clear
4:53 AM 24.1 °F 18.2 °F 21.0 °F 88% 30.07 in 7.0 mi SSE 4.6 mph - N/A   Clear
5:53 AM 23.0 °F - 19.9 °F 88% 30.08 in 7.0 mi Calm Calm - N/A   Clear
6:53 AM 21.9 °F - 19.9 °F 92% 30.10 in 8.0 mi Calm Calm - N/A   Clear
7:53 AM 19.9 °F - 19.0 °F 96% 30.11 in 7.0 mi Calm Calm - N/A   Clear
8:53 AM 28.0 °F 21.7 °F 25.0 °F 88% 30.09 in 7.0 mi ESE 5.8 mph - N/A   Clear
9:53 AM 32.0 °F 25.6 °F 26.1 °F 79% 30.10 in 10.0 mi SSE 6.9 mph - N/A   Clear
10:53 AM 34.0 °F 28.8 °F 27.0 °F 75% 30.09 in 10.0 mi SE 5.8 mph - N/A   Clear
11:53 AM 37.9 °F 34.4 °F 28.9 °F 70% 30.06 in 10.0 mi Variable 4.6 mph - N/A   Clear
12:53 PM 39.9 °F 35.1 °F 30.0 °F 68% 30.01 in 10.0 mi SSE 6.9 mph - N/A   Clear
1:53 PM 41.0 °F 37.1 °F 30.9 °F 67% 29.96 in 10.0 mi SE 5.8 mph - N/A   Clear
2:53 PM 42.1 °F 34.9 °F 32.0 °F 67% 29.94 in 10.0 mi SE 13.8 mph - N/A   Clear
3:34 PM 42.8 °F 36.6 °F 33.8 °F 70% 29.88 in 8.0 mi ESE 11.5 mph - N/A   Mostly Cloudy
3:53 PM 43.0 °F 37.2 °F 34.0 °F 71% 29.92 in 8.0 mi SSE 10.4 mph - N/A   Overcast
4:53 PM 44.1 °F 38.1 °F 36.0 °F 73% 29.93 in 8.0 mi South 11.5 mph - N/A   Overcast
5:53 PM 43.0 °F 38.8 °F 36.0 °F 76% 29.92 in 10.0 mi SE 6.9 mph - N/A   Overcast
6:53 PM 44.1 °F 39.5 °F 37.0 °F 76% 29.91 in 9.0 mi SE 8.1 mph - N/A   Overcast
7:21 PM 42.8 °F 38.0 °F 37.4 °F 81% 29.89 in 8.0 mi SE 8.1 mph - N/A   Overcast
7:53 PM 42.1 °F 36.6 °F 37.9 °F 85% 29.92 in 7.0 mi SE 9.2 mph - N/A   Overcast
8:53 PM 43.0 °F 38.8 °F 37.9 °F 82% 29.93 in 7.0 mi SSE 6.9 mph - N/A   Overcast
9:53 PM 43.0 °F 40.3 °F 39.0 °F 86% 29.93 in 6.0 mi SE 4.6 mph - N/A   Overcast
10:40 PM 42.8 °F 39.3 °F 39.2 °F 87% 29.89 in 5.0 mi SE 5.8 mph - N/A   Overcast
11:53 PM 41.0 °F 35.8 °F 39.9 °F 96% 29.91 in 3.0 mi NNE 8.1 mph - 0.00 in   Light Drizzle